Location: Penticton
(49.5000°N, 119.5830°W)
Time: 13:19:53
(UTC-07:00)

Daily predictions for brighter satellites

Satellite Brightness Start Highest point End
(mag) Time Altitude Azimuth Time Altitude Azimuth Time Altitude Azimuth
Cosmos 2219 Rocket 3.6 21:43:14 10° NNW 21:48:02 28° NE 21:52:50 10° ESE
Cosmos 2315 Rocket 4.2 21:45:45 10° N 21:51:55 61° ENE 21:58:02 10° SSE
Terra 3.0 21:47:53 10° ESE 21:51:59 29° ENE 21:56:05 10° N
Cosmos 405 3.1 21:49:39 10° NNW 21:53:19 87° W 21:56:57 10° S
Cosmos 2344 4.4 21:47:42 10° WSW 21:55:32 67° NW 22:05:08 10° NE
Envisat 3.8 21:51:00 10° S 21:55:57 51° W 22:00:55 10° NNW
Cosmos 2112 Rocket 4.1 21:52:16 10° NNW 21:57:30 72° ENE 22:02:45 10° SSE
Cosmos 1271 Rocket 4.4 21:55:17 10° NNE 21:58:14 21° ENE 22:01:12 10° ESE
SL-23 DEB 4.4 21:53:40 10° WNW 21:59:12 56° SSW 22:02:41 10° SE
Cosmos 1441 Rocket 3.5 21:57:02 10° SSW 22:00:47 68° WNW 22:04:33 10° N
ARGOS 3.2 21:56:59 10° SSE 22:02:23 76° ENE 22:07:48 10° NNW
Cosmos 2266 Rocket 4.0 21:59:14 10° S 22:05:33 84° E 22:11:47 10° N
Cosmos 2219 4.0 22:01:03 10° SSE 22:06:05 32° ESE 22:11:07 10° NE
Cosmos 1633 Rocket 4.3 22:03:42 10° SE 22:07:17 25° E 22:10:52 10° NNE
Sich 1 4.2 22:05:15 10° SSE 22:09:00 27° E 22:12:45 10° NNE
Cosmos 2322 3.9 22:03:50 10° NNW 22:09:34 75° WSW 22:15:15 10° SSE
Cosmos 1777 Rocket 4.0 22:07:11 10° SSW 22:12:28 85° ESE 22:17:45 10° NNE
Cosmos 1437 2.9 22:09:46 10° S 22:13:00 59° E 22:16:16 10° NNE
Cosmos 1726 2.8 22:09:52 10° N 22:13:29 43° ENE 22:16:52 11° SSE
Cosmos 2237 Rocket 3.6 22:08:40 10° NNW 22:13:40 30° NE 22:18:39 10° ESE
Cosmos 1908 4.2 22:10:18 10° NNW 22:14:02 45° W 22:17:46 10° SSW
Cosmos 2322 Rocket 3.9 22:12:18 10° NW 22:16:51 26° WSW 22:21:24 10° SSW
H-2A R/B 2.5 22:12:27 10° SE 22:17:39 56° ENE 22:22:58 10° N
Cosmos 1805 Rocket 3.9 22:15:24 10° S 22:19:43 52° E 22:24:03 10° NNE
Cosmos 1151 Rocket 3.9 22:16:30 10° NNW 22:20:39 47° W 22:24:47 10° SSW
Cosmos 2151 2.9 22:16:42 10° S 22:20:55 86° E 22:25:08 10° N
SPOT 5 4.2 22:18:01 10° SSW 22:22:10 34° W 22:26:32 10° NNW
SL-16 R/B 4.0 22:20:59 10° NW 22:25:27 24° WSW 22:29:54 10° SSW
SAR-Lupe-2 4.3 22:22:34 13° SE 22:25:34 42° ENE 22:28:59 10° N
Cosmos 2360 Rocket 2.8 22:23:14 10° NW 22:28:44 53° WSW 22:34:12 10° S
SPOT 1/Viking Rocket 4.1 22:24:37 10° S 22:29:40 56° W 22:34:45 10° NNW
Meteor 1-11 4.4 22:25:08 10° S 22:30:47 58° E 22:36:24 10° NNE
Cosmos 1707 Rocket 3.5 22:29:07 10° N 22:33:29 88° WSW 22:37:35 12° S
NOAA 11 4.5 22:28:12 10° S 22:33:37 67° WSW 22:39:04 10° NNW
Cosmos 1680 Rocket 4.1 22:30:15 10° NNW 22:35:19 51° WSW 22:40:24 10° S
ATLAS 3B R/B 3.8 22:33:16 10° NW 22:40:05 41° NNE 22:46:29 10° E
Lacrosse 4 Rocket 3.8 22:37:33 10° N 22:40:33 18° NE 22:43:33 10° ENE
Cosmos 1666 Rocket 3.6 22:37:19 10° S 22:41:34 64° E 22:45:58 10° NNE
Cosmos 1745 Rocket 4.4 22:36:53 12° SSE 22:42:17 46° E 22:48:08 10° NNE
Cosmos 1674 4.2 22:39:09 10° SW 22:42:44 37° WNW 22:46:23 10° N
NOSS 3-1 (C) 3.9 22:39:39 10° S 22:45:07 40° ESE 22:51:11 10° NE
Cosmos 1300 3.1 22:42:08 10° NNW 22:45:57 62° W 22:49:23 12° S
DMSP B5D2-2 4.4 22:41:03 10° NNE 22:46:10 50° E 22:50:40 13° S
CZ-4C R/B 3.6 22:46:07 13° S 22:49:10 53° W 22:52:35 10° NNW
Cosmos 2150 Rocket 4.5 22:45:49 11° S 22:50:42 46° ESE 22:55:56 10° NNE
CZ-4B R/B 4.3 22:46:31 10° N 22:51:42 57° WNW 22:56:50 10° SW
Cosmos 1869 4.4 22:48:25 10° N 22:52:08 33° ENE 22:54:46 16° SE
Meteor 1-4 Rocket 2.6 22:50:47 10° N 22:54:38 87° E 22:57:18 18° SSE
Cosmos 1898 Rocket 3.8 22:50:22 12° S 22:54:50 47° ESE 22:59:50 10° NNE
Cosmos 1470 Rocket 4.3 22:52:02 17° SSE 22:54:50 37° E 22:58:50 10° NNE
Cosmos 1626 3.5 22:53:55 17° SE 22:55:47 25° E 22:58:57 10° NNE
Cosmos 1933 Rocket 4.3 22:53:33 17° SSE 22:56:29 38° E 23:00:37 10° NNE
Cosmos 2333 Rocket 2.6 22:50:49 10° NNW 22:56:32 60° ENE 23:01:13 15° SE
Cosmos 2058 3.3 22:52:53 10° SSW 22:56:58 63° WNW 23:01:04 10° N
Cosmos 2227 Rocket 3.5 22:54:43 16° SE 22:57:38 23° ESE 23:01:59 10° NE
Meteor 2-10 4.3 22:56:18 10° N 23:01:59 82° ENE 23:06:31 17° SSE
SL-16 R/B 3.5 22:59:01 10° NNW 23:04:09 33° NE 23:09:15 10° ESE
Cosmos 2242 Rocket 3.8 23:01:05 10° NNW 23:05:32 71° W 23:09:01 16° S
COSMOS 2428 3.2 23:02:32 10° NW 23:08:03 53° WSW 23:12:26 16° S
Cosmos 1455 2.4 23:05:23 10° N 23:09:09 58° ENE 23:11:23 22° SSE
USA 32 4.4 23:09:50 10° NNW 23:15:04 64° W 23:19:29 14° S
COSMOS 2455 3.7 23:10:09 10° NNW 23:15:58 46° NE 23:21:35 11° ESE
IGS 5A 4.0 23:13:10 17° S 23:16:16 53° W 23:20:23 10° NNW
Spot 4 4.2 23:15:50 17° S 23:19:28 63° WSW 23:24:19 10° NNW
USA 234 4.2 23:14:20 10° E 23:20:35 49° N 23:26:50 10° WNW
SeaSat 1 2.5 23:21:10 20° SE 23:24:36 84° ENE 23:29:34 10° NNW
NOSS 0 Rocket 3.9 23:18:55 10° NNW 23:25:06 80° WSW 23:29:28 21° SSE
Cosmos 2297 Rocket 3.3 23:22:46 19° SE 23:25:20 27° ESE 23:29:59 10° NE
USA 229 DEB 4.4 23:20:38 10° WSW 23:27:29 59° NW 23:34:27 10° NE
USA 229 4.4 23:20:44 10° WSW 23:27:34 59° NW 23:34:33 10° NE
SL-14 R/B 4.4 23:24:44 10° SSW 23:28:30 42° WNW 23:32:20 10° N
Terra 2.8 23:25:53 14° SSW 23:29:36 40° W 23:34:06 10° NNW
Cosmos 1703 3.4 23:26:54 17° SSW 23:29:49 70° W 23:33:45 10° N
Cosmos 292 Rocket 4.2 23:26:00 10° NNW 23:30:39 52° WSW 23:33:39 21° S
Cosmos 1862 Rocket 3.5 23:27:12 10° NNW 23:31:35 80° W 23:34:13 23° S
Cosmos 2219 Rocket 2.4 23:26:54 10° NNW 23:32:27 64° WSW 23:36:07 22° S
Cosmos 1346 3.0 23:33:17 34° S 23:34:25 67° E 23:37:26 10° NNE
Cosmos 1271 Rocket 3.9 23:30:55 10° NNW 23:34:25 35° W 23:36:55 17° SSW
Cosmos 1933 3.8 23:31:56 10° N 23:35:53 49° ENE 23:37:57 25° SE
COS B Rocket 3.6 23:38:31 10° NNE 23:41:53 46° E 23:43:27 28° SE
Cosmos 2298 Rocket 4.4 23:37:16 10° SSW 23:42:33 66° WNW 23:47:53 10° NNE
Cosmos 1980 3.8 23:38:48 10° NNW 23:44:26 71° WSW 23:47:57 24° SSE
GEOS 3 Rocket 3.6 23:41:20 22° SSE 23:44:46 74° SW 23:49:58 10° NW
Cosmos 1633 Rocket 4.3 23:40:50 10° SW 23:44:55 37° WNW 23:49:01 10° N
NOSS 3-1 (A) 3.4 23:40:43 10° SSW 23:46:42 74° SE 23:53:28 10° NE
Cosmos 2219 4.1 23:44:26 10° SW 23:50:02 51° NW 23:55:39 10° NNE
BREEZE-M DEB (TANK) 3.2 23:48:36 10° W 23:50:36 30° SSW 23:50:36 30° SSW
